GW3919 Weather Reports


Display with metric or nautical units.
time (UTC)temp
F
wind
direction
speed
MPH
gust
MPH
rain 1hr
in
rain 24hr
in
rain mn
in
humidity
%
barometer
mb
20260507224831 70 343 0.0 3.0 0.00 0.00 0.00 65 1015.4
20260507224328 70 225 2.0 3.0 0.00 0.00 0.00 65 1015.2
20260507223824 70 98 2.0 2.0 0.00 0.00 0.00 65 1015.5
20260507223320 71 322 0.0 2.0 0.00 0.00 0.00 65 1015.3
20260507222817 71 278 2.0 3.0 0.00 0.00 0.00 64 1015.2
20260507222313 72 300 2.0 2.0 0.00 0.00 0.00 62 1015.4
20260507221811 72 119 0.0 2.0 0.00 0.00 0.00 62 1015.4
20260507221307 72 194 2.0 3.0 0.00 0.00 0.00 59 1015.3
20260507220803 72 280 1.0 3.0 0.00 0.00 0.00 59 1015.3
20260507220302 73 264 1.0 2.0 0.00 0.00 0.00 59 1015.4
20260507215757 73 299 0.0 1.0 0.00 0.00 0.00 57 1015.5
20260507215255 73 263 0.0 3.0 0.00 0.00 0.00 56 1015.5
20260507214752 73 267 2.0 2.0 0.00 0.00 0.00 57 1015.3
20260507214249 73 124 0.0 2.0 0.00 0.00 0.00 58 1015.5
20260507213744 73 207 1.0 2.0 0.00 0.00 0.00 55 1015.8
20260507213242 72 286 2.0 3.0 0.00 0.00 0.00 55 1015.7
20260507212738 73 121 0.0 1.0 0.00 0.00 0.00 55 1015.9
20260507212235 73 336 1.0 2.0 0.00 0.00 0.00 56 1015.9
20260507211731 73 287 2.0 2.0 0.00 0.00 0.00 56 1015.8
20260507211228 73 245 0.0 4.0 0.00 0.00 0.00 56 1016.0
20260507210725 73 263 1.0 3.0 0.00 0.00 0.00 57 1016.1
20260507210221 73 194 0.0 3.0 0.00 0.00 0.00 55 1015.9
20260507205718 74 299 1.0 3.0 0.00 0.00 0.00 56 1015.9
20260507205214 74 260 1.0 3.0 0.00 0.00 0.00 57 1015.8
20260507204711 74 309 0.0 3.0 0.00 0.00 0.00 55 1015.8
20260507204209 73 303 0.0 3.0 0.00 0.00 0.00 56 1015.8
20260507203707 73 262 2.0 4.0 0.00 0.00 0.00 55 1015.9
20260507203204 73 269 3.0 4.0 0.00 0.00 0.00 55 1015.9
20260507202659 73 260 0.0 5.0 0.00 0.00 0.00 57 1015.8
20260507202155 74 244 3.0 6.0 0.00 0.00 0.00 55 1016.0
20260507201650 75 150 2.0 2.0 0.00 0.00 0.00 53 1016.3
20260507201148 74 261 0.0 4.0 0.00 0.00 0.00 56 1016.4
20260507200644 73 59 2.0 4.0 0.00 0.00 0.00 56 1016.7
20260507200140 73 267 1.0 2.0 0.00 0.00 0.00 55 1016.5
20260507195637 73 295 1.0 3.0 0.00 0.00 0.00 55 1016.5
20260507195134 73 317 2.0 4.0 0.00 0.00 0.00 54 1016.4
20260507194631 73 132 2.0 4.0 0.00 0.00 0.00 54 1016.6
20260507194126 73 284 4.0 5.0 0.00 0.00 0.00 55 1016.9
20260507193623 75 229 1.0 6.0 0.00 0.00 0.00 54 1016.8
20260507193120 74 156 0.0 6.0 0.00 0.00 0.00 52 1017.0
20260507192617 75 238 2.0 5.0 0.00 0.00 0.00 53 1017.0
20260507192114 75 228 2.0 5.0 0.00 0.00 0.00 49 1017.1
20260507191609 75 274 2.0 3.0 0.00 0.00 0.00 56 1017.1
20260507191106 73 48 0.0 4.0 0.00 0.00 0.00 55 1017.2
20260507190603 74 179 3.0 3.0 0.00 0.00 0.00 51 1016.9
20260507185600 74 295 1.0 4.0 0.00 0.00 0.00 53 1017.1
20260507185056 74 246 0.0 4.0 0.00 0.00 0.00 54 1017.0
20260507184555 75 273 3.0 5.0 0.00 0.00 0.00 52 1017.2
20260507184052 74 103 2.0 4.0 0.00 0.00 0.00 52 1016.9
20260507183548 73 209 2.0 5.0 0.00 0.00 0.00 53 1017.2
20260507183045 74 293 1.0 3.0 0.00 0.00 0.00 53 1017.3
20260507182542 73 131 0.0 4.0 0.00 0.00 0.00 52 1017.9
20260507182037 74 347 3.0 3.0 0.00 0.00 0.00 54 1017.4
20260507181535 73 317 0.0 4.0 0.00 0.00 0.00 52 1017.4
20260507181031 73 278 0.0 4.0 0.00 0.00 0.00 54 1017.6
20260507180527 73 148 4.0 5.0 0.00 0.00 0.00 52 1017.7
20260507180024 73 128 1.0 5.0 0.00 0.00 0.00 54 1017.9
20260507175520 72 237 2.0 4.0 0.00 0.00 0.00 54 1018.0
20260507175018 72 103 1.0 4.0 0.00 0.00 0.00 54 1017.9
20260507174515 71 259 3.0 7.0 0.00 0.00 0.00 56 1017.8
20260507174013 71 250 4.0 4.0 0.00 0.00 0.00 56 1018.0
20260507173509 71 146 4.0 6.0 0.00 0.00 0.00 56 1018.2
20260507173007 71 287 4.0 6.0 0.00 0.00 0.00 56 1018.2
20260507172503 71 169 3.0 3.0 0.00 0.00 0.00 56 1018.5
20260507171959 71 311 1.0 2.0 0.00 0.00 0.00 57 1018.5
20260507171455 71 263 2.0 3.0 0.00 0.00 0.00 58 1018.7
20260507170953 71 256 2.0 3.0 0.00 0.00 0.00 57 1018.7
20260507170449 70 98 2.0 4.0 0.00 0.00 0.00 59 1018.9
20260507165945 70 126 6.0 6.0 0.00 0.00 0.00 57 1019.0
20260507165442 70 218 0.0 2.0 0.00 0.00 0.00 57 1019.5
20260507164938 70 114 2.0 3.0 0.00 0.00 0.00 57 1019.3
20260507164435 71 121 2.0 4.0 0.00 0.00 0.00 58 1019.5
20260507163931 68 185 2.0 5.0 0.00 0.00 0.00 61 1019.4
20260507163429 67 145 4.0 4.0 0.00 0.00 0.00 62 1019.5
20260507162926 68 180 2.0 4.0 0.00 0.00 0.00 61 1019.3
20260507162421 69 184 1.0 2.0 0.00 0.00 0.00 60 1019.7
20260507161919 68 40 2.0 4.0 0.00 0.00 0.00 60 1019.7
20260507161414 70 301 2.0 2.0 0.00 0.00 0.00 60 1019.6
20260507160912 69 287 0.0 5.0 0.00 0.00 0.00 62 1019.5
20260507160407 68 123 2.0 6.0 0.00 0.00 0.00 63 1019.3
20260507155904 70 299 2.0 4.0 0.00 0.00 0.00 61 1019.4
20260507155359 68 287 2.0 4.0 0.00 0.00 0.00 64 1019.4
20260507154856 68 101 2.0 4.0 0.00 0.00 0.00 63 1019.4
20260507154353 67 290 2.0 5.0 0.00 0.00 0.00 64 1019.4
20260507153851 68 271 1.0 4.0 0.00 0.00 0.00 65 1019.4
20260507153347 68 329 2.0 2.0 0.00 0.00 0.00 65 1019.6
20260507152843 67 210 2.0 3.0 0.00 0.00 0.00 66 1020.0
20260507152340 66 269 0.0 1.0 0.00 0.00 0.00 67 1019.9
20260507151836 65 148 4.0 6.0 0.00 0.00 0.00 68 1019.7
20260507151332 66 136 4.0 5.0 0.00 0.00 0.00 67 1019.9
20260507150830 65 149 3.0 9.0 0.00 0.00 0.00 68 1020.1
20260507150326 67 170 2.0 2.0 0.00 0.00 0.00 66 1020.0
20260507145822 67 190 2.0 4.0 0.00 0.00 0.00 67 1019.9
20260507145319 67 309 1.0 2.0 0.00 0.00 0.00 68 1020.1
20260507144816 65 127 4.0 5.0 0.00 0.00 0.00 69 1020.2
20260507144313 64 154 1.0 5.0 0.00 0.00 0.00 71 1020.0
20260507143809 65 152 2.0 4.0 0.00 0.00 0.00 69 1019.9
20260507143307 65 163 0.0 4.0 0.00 0.00 0.00 71 1019.9
20260507142803 64 123 0.0 4.0 0.00 0.00 0.00 73 1019.8
20260507142259 62 149 4.0 8.0 0.00 0.00 0.00 77 1020.2
20260507141756 63 25 0.0 4.0 0.00 0.00 0.00 76 1020.2
20260507141253 62 148 3.0 5.0 0.00 0.00 0.00 78 1020.1
20260507140749 63 25 0.0 2.0 0.00 0.00 0.00 76 1020.2
20260507140247 62 138 0.0 3.0 0.00 0.00 0.00 79 1020.2
20260507135744 60 142 3.0 5.0 0.00 0.00 0.00 80 1020.3
20260507135241 61 102 4.0 4.0 0.00 0.00 0.00 78 1020.2
20260507134737 60 23 1.0 5.0 0.00 0.00 0.00 80 1020.6
20260507134234 60 151 4.0 4.0 0.00 0.00 0.00 82 1020.5
20260507133730 59 138 4.0 4.0 0.00 0.00 0.00 82 1020.6
20260507133227 61 168 2.0 2.0 0.00 0.00 0.00 82 1020.8
20260507132724 59 142 0.0 2.0 0.00 0.00 0.00 87 1020.7
20260507132221 58 172 2.0 3.0 0.00 0.00 0.00 88 1020.4
20260507131717 58 91 2.0 3.0 0.00 0.00 0.00 89 1020.6
20260507131215 58 72 1.0 2.0 0.00 0.00 0.00 88 1020.4
20260507130711 57 126 0.0 2.0 0.00 0.00 0.00 90 1020.5
20260507130209 57 229 0.0 3.0 0.00 0.00 0.00 91 1020.5
20260507125708 57 77 1.0 2.0 0.00 0.00 0.00 92 1020.4
20260507125205 56 58 0.0 1.0 0.00 0.00 0.00 94 1020.4
20260507124701 55 124 1.0 2.0 0.00 0.00 0.00 95 1020.5
20260507124158 55 47 1.0 2.0 0.00 0.00 0.00 97 1020.3
20260507123657 54 157 1.0 2.0 0.00 0.00 0.00 98 1020.0
20260507123154 53 70 0.0 2.0 0.00 0.00 0.00 98 1020.1
20260507122649 53 44 0.0 1.0 0.00 0.00 0.00 98 1020.3
20260507122145 52 75 0.0 1.0 0.00 0.00 0.00 98 1020.1
20260507121641 52 55 0.0 2.0 0.00 0.00 0.00 98 1020.0
20260507121137 52 124 0.0 0.0 0.00 0.00 0.00 98 1020.3
20260507120633 52 89 0.0 2.0 0.00 0.00 0.00 98 1020.2
20260507120130 52 312 0.0 1.0 0.00 0.00 0.00 98 1020.0
20260507115626 52 298 0.0 1.0 0.00 0.00 0.00 98 1020.1
20260507115122 52 44 0.0 1.0 0.00 0.00 0.00 98 1019.9
20260507114618 52 300 0.0 1.0 0.00 0.00 0.00 98 1019.9
20260507114115 52 141 0.0 1.0 0.00 0.00 0.00 97 1019.8
20260507113613 52 293 0.0 0.0 0.00 0.00 0.00 97 1019.8
20260507113110 52 89 0.0 1.0 0.00 0.00 0.00 97 1019.5
20260507112608 52 155 1.0 2.0 0.00 0.00 0.00 97 1019.7
20260507112104 52 132 1.0 2.0 0.00 0.00 0.00 97 1019.6
20260507111601 52 239 0.0 1.0 0.00 0.00 0.00 97 1019.3
20260507111058 52 79 0.0 1.0 0.00 0.00 0.00 97 1019.5
20260507110554 52 118 1.0 2.0 0.00 0.00 0.00 97 1019.5
20260507110051 52 72 0.0 2.0 0.00 0.00 0.00 96 1019.4
20260507105548 52 49 0.0 2.0 0.00 0.00 0.00 96 1019.4
20260507105044 52 38 1.0 2.0 0.00 0.00 0.00 96 1019.0
20260507104541 52 114 0.0 2.0 0.00 0.00 0.00 96 1018.5
20260507104037 52 108 2.0 2.0 0.00 0.00 0.00 96 1018.6
20260507103534 52 97 2.0 2.0 0.00 0.00 0.00 95 1018.7
20260507103031 52 102 0.0 2.0 0.00 0.00 0.00 95 1018.6
20260507102527 52 118 1.0 2.0 0.00 0.00 0.00 95 1018.6
20260507102023 52 100 0.0 2.0 0.00 0.00 0.00 94 1018.3
20260507101519 53 101 1.0 2.0 0.00 0.00 0.00 94 1018.3
20260507101015 53 127 1.0 2.0 0.00 0.00 0.00 93 1018.1
20260507100513 53 146 0.0 2.0 0.00 0.00 0.00 93 1018.1
20260507100011 53 110 0.0 2.0 0.00 0.00 0.00 93 1018.2
20260507095508 53 168 0.0 1.0 0.00 0.00 0.00 92 1018.1
20260507095005 53 92 0.0 1.0 0.00 0.00 0.00 92 1018.1
20260507094501 53 171 0.0 1.0 0.00 0.00 0.00 92 1018.2
20260507093958 53 217 0.0 1.0 0.00 0.00 0.00 92 1018.1
20260507093456 54 76 0.0 1.0 0.00 0.00 0.00 92 1018.1
20260507092954 54 138 0.0 1.0 0.00 0.00 0.00 92 1018.1
20260507092450 54 265 1.0 3.0 0.00 0.00 0.00 92 1018.0
20260507091947 54 269 0.0 2.0 0.00 0.00 0.00 92 1018.0
20260507091443 54 113 0.0 2.0 0.00 0.00 0.00 92 1017.7
20260507090939 54 70 0.0 2.0 0.00 0.00 0.00 92 1017.8
20260507090435 54 31 0.0 3.0 0.00 0.00 0.00 92 1017.8
20260507085932 54 294 0.0 2.0 0.00 0.00 0.00 93 1017.7
20260507085429 54 44 0.0 1.0 0.00 0.00 0.00 92 1017.7
20260507084926 54 125 0.0 2.0 0.00 0.00 0.00 92 1017.9
20260507084423 54 150 1.0 2.0 0.00 0.00 0.00 92 1017.9
20260507083920 54 45 0.0 2.0 0.00 0.00 0.00 93 1017.7
20260507083417 54 128 2.0 2.0 0.00 0.00 0.00 93 1017.6
20260507082913 54 154 2.0 3.0 0.00 0.00 0.00 92 1017.7
20260507082409 55 25 0.0 2.0 0.00 0.00 0.00 92 1017.7
20260507081906 55 156 2.0 2.0 0.00 0.00 0.00 92 1017.8
20260507081402 55 153 2.0 2.0 0.00 0.00 0.00 92 1017.7
20260507080859 55 120 0.0 2.0 0.00 0.00 0.00 92 1017.7
20260507080355 55 148 0.0 2.0 0.00 0.00 0.00 92 1017.7
20260507075851 55 336 0.0 2.0 0.00 0.00 0.00 92 1017.6
20260507075347 55 34 0.0 2.0 0.00 0.00 0.00 92 1017.4
20260507074843 55 64 0.0 3.0 0.00 0.00 0.00 92 1017.3
20260507074341 55 308 0.0 5.0 0.00 0.00 0.00 92 1017.1
20260507073838 55 156 0.0 2.0 0.00 0.00 0.00 91 1017.1
20260507073334 55 227 0.0 2.0 0.00 0.00 0.00 91 1016.8
20260507072832 56 165 0.0 1.0 0.00 0.00 0.00 91 1016.9
20260507072329 56 261 1.0 2.0 0.00 0.00 0.00 91 1016.9
20260507071827 56 102 0.0 2.0 0.00 0.00 0.00 90 1017.0
20260507071324 56 247 1.0 3.0 0.00 0.00 0.00 90 1016.9
20260507070820 56 235 0.0 2.0 0.00 0.00 0.00 90 1017.1
20260507070317 56 65 0.0 3.0 0.00 0.00 0.00 89 1017.1
20260507065814 56 261 1.0 3.0 0.00 0.00 0.00 89 1017.1
20260507065310 56 54 0.0 3.0 0.00 0.00 0.00 89 1016.8
20260507064808 56 133 0.0 3.0 0.00 0.00 0.00 89 1017.1
20260507064306 56 107 0.0 2.0 0.00 0.00 0.00 88 1017.2
20260507063804 56 253 0.0 2.0 0.00 0.00 0.00 88 1017.3
20260507063301 56 44 1.0 2.0 0.00 0.00 0.00 87 1017.0
20260507062757 57 102 0.0 3.0 0.00 0.00 0.00 87 1017.1
20260507062254 57 233 1.0 3.0 0.00 0.00 0.00 87 1017.2
20260507061752 57 338 1.0 3.0 0.00 0.00 0.00 87 1017.0
20260507061250 57 243 1.0 2.0 0.00 0.00 0.00 86 1016.9
20260507060748 57 274 1.0 4.0 0.00 0.00 0.00 86 1017.0
20260507060244 57 282 3.0 3.0 0.00 0.00 0.00 85 1016.9
20260507055741 57 239 2.0 3.0 0.00 0.00 0.00 85 1016.8
20260507055236 57 274 0.0 3.0 0.00 0.00 0.00 85 1016.9
20260507054732 57 243 2.0 2.0 0.00 0.00 0.00 85 1017.0
20260507054229 58 232 0.0 3.0 0.00 0.00 0.00 85 1016.9
20260507053727 58 295 2.0 4.0 0.00 0.00 0.00 85 1017.2
20260507053224 58 280 3.0 4.0 0.00 0.00 0.00 85 1016.9
20260507052723 58 310 2.0 4.0 0.00 0.00 0.00 85 1016.9
20260507052219 58 271 2.0 3.0 0.00 0.00 0.00 86 1017.2
20260507051717 59 262 2.0 4.0 0.00 0.00 0.00 85 1017.2
20260507051214 59 271 2.0 5.0 0.00 0.00 0.00 85 1017.1
20260507050710 59 276 2.0 4.0 0.00 0.00 0.00 85 1017.0
20260507050207 59 291 0.0 4.0 0.00 0.00 0.00 85 1017.1
20260507045704 59 279 0.0 3.0 0.00 0.06 0.06 85 1017.0
20260507045200 59 286 0.0 4.0 0.00 0.06 0.06 85 1017.3
20260507044657 59 284 1.0 3.0 0.00 0.06 0.06 84 1016.9
20260507044154 59 293 0.0 3.0 0.00 0.06 0.06 84 1017.0
20260507043650 59 117 1.0 3.0 0.00 0.06 0.06 83 1017.2
20260507043147 59 242 2.0 3.0 0.00 0.06 0.06 83 1017.2
20260507042644 59 261 2.0 4.0 0.00 0.06 0.06 83 1017.4
20260507042138 59 357 2.0 6.0 0.00 0.06 0.06 83 1017.4
20260507041636 59 46 1.0 6.0 0.00 0.06 0.06 82 1017.4
20260507041127 59 259 2.0 5.0 0.00 0.06 0.06 82 1017.7
20260507040624 60 260 4.0 4.0 0.00 0.06 0.06 82 1017.7
20260507040120 60 301 1.0 4.0 0.00 0.06 0.06 82 1017.7
20260507035616 60 68 0.0 6.0 0.00 0.06 0.06 82 1017.6
20260507035113 60 51 1.0 4.0 0.00 0.06 0.06 82 1017.6
20260507034610 60 308 1.0 6.0 0.00 0.06 0.06 82 1017.6
20260507034108 60 124 2.0 3.0 0.00 0.06 0.06 82 1017.4
20260507033606 60 121 2.0 4.0 0.00 0.06 0.06 82 1017.4
20260507033102 60 271 1.0 6.0 0.00 0.06 0.06 82 1017.6
20260507032559 60 208 0.0 9.0 0.00 0.06 0.06 82 1017.0
20260507032055 60 351 1.0 4.0 0.00 0.06 0.06 82 1017.2
20260507031552 60 186 3.0 4.0 0.00 0.06 0.06 84 1017.2
20260507031050 60 117 4.0 4.0 0.00 0.06 0.06 84 1017.0
20260507030546 60 160 0.0 3.0 0.00 0.06 0.06 85 1016.8
20260507030044 60 144 1.0 2.0 0.00 0.06 0.06 84 1017.0
20260507025541 60 141 3.0 4.0 0.00 0.06 0.06 84 1017.0
20260507025038 60 86 0.0 2.0 0.00 0.06 0.06 84 1016.6
20260507024536 60 36 2.0 3.0 0.00 0.06 0.06 84 1016.7
20260507024032 60 142 4.0 4.0 0.00 0.06 0.06 84 1016.5
20260507023528 60 236 0.0 3.0 0.00 0.06 0.06 84 1016.4
20260507023026 60 194 2.0 4.0 0.00 0.06 0.06 84 1016.3
20260507022523 60 250 2.0 5.0 0.00 0.06 0.06 85 1016.4
20260507022018 60 260 3.0 7.0 0.00 0.06 0.06 85 1016.2
20260507021514 60 140 2.0 6.0 0.00 0.06 0.06 85 1016.2
20260507021011 60 133 1.0 5.0 0.00 0.06 0.06 85 1016.0
20260507020508 60 15 2.0 5.0 0.00 0.06 0.06 86 1015.9
20260507020005 60 125 0.0 5.0 0.00 0.06 0.06 86 1015.7
20260507015503 60 30 2.0 4.0 0.00 0.06 0.06 86 1015.7
20260507015001 60 112 3.0 4.0 0.00 0.06 0.06 86 1015.4
20260507014457 60 330 2.0 3.0 0.00 0.06 0.06 87 1015.6
20260507013953 60 103 0.0 2.0 0.00 0.06 0.06 87 1015.5
20260507013449 60 165 4.0 5.0 0.00 0.06 0.06 87 1015.4
20260507012947 60 275 1.0 2.0 0.00 0.06 0.06 87 1015.3
20260507012443 60 243 3.0 3.0 0.00 0.06 0.06 87 1015.0
20260507011940 60 162 0.0 3.0 0.00 0.06 0.06 87 1015.3
20260507011437 60 131 2.0 2.0 0.00 0.06 0.06 87 1015.0
20260507010937 60 105 1.0 2.0 0.00 0.06 0.06 87 1015.1
20260507010432 60 281 3.0 3.0 0.00 0.06 0.06 87 1014.8
20260507005929 60 103 1.0 4.0 0.00 0.06 0.06 87 1014.8
20260507005426 60 127 3.0 3.0 0.00 0.06 0.06 87 1014.7
20260507004923 60 148 2.0 4.0 0.00 0.06 0.06 87 1014.7
20260507004420 60 150 2.0 6.0 0.00 0.06 0.06 86 1014.9
20260507003917 60 122 2.0 3.0 0.00 0.06 0.06 86 1014.8
20260507003412 60 153 2.0 5.0 0.00 0.06 0.06 86 1014.7
20260507002908 60 224 0.0 3.0 0.00 0.06 0.06 86 1014.9
20260507002404 60 143 3.0 5.0 0.00 0.06 0.06 86 1014.7
20260507001901 60 178 2.0 4.0 0.00 0.06 0.06 85 1014.5
20260507001358 60 27 2.0 4.0 0.00 0.06 0.06 85 1014.5
20260507000855 60 325 1.0 5.0 0.00 0.06 0.06 85 1014.6
20260507000350 60 173 3.0 5.0 0.00 0.06 0.06 84 1014.2
20260506235847 61 188 2.0 4.0 0.00 0.06 0.06 84 1014.1
20260506235344 60 156 5.0 6.0 0.00 0.06 0.06 83 1014.1
20260506234834 61 279 0.0 4.0 0.00 0.06 0.06 83 1014.0
20260506234333 61 145 1.0 4.0 0.00 0.06 0.06 82 1014.2
20260506233830 61 249 1.0 4.0 0.00 0.06 0.06 82 1014.2
20260506233325 61 298 1.0 4.0 0.00 0.06 0.06 82 1014.4
20260506232823 61 268 2.0 4.0 0.00 0.06 0.06 82 1014.2
20260506232318 61 254 0.0 3.0 0.00 0.06 0.06 82 1014.2
20260506231815 62 237 1.0 2.0 0.00 0.06 0.06 82 1013.9
20260506231313 61 312 2.0 6.0 0.00 0.06 0.06 82 1014.2
20260506230810 62 177 1.0 3.0 0.00 0.06 0.06 80 1014.3
20260506230307 62 89 0.0 4.0 0.00 0.06 0.06 81 1013.7
20260506225803 61 170 2.0 4.0 0.00 0.06 0.06 81 1013.8
20260506225300 61 173 2.0 5.0 0.00 0.06 0.06 81 1013.9